Back to catalog

KORSAT-4

AliveScienceVLEO
NORAD 66293·PAYLOAD·🇰🇷 South Korea

Launched Nov 2, 2025 from Cape Canaveral Space Force Station

Loading…

Next Passes (next 24 hours)

TLE

AgingSource: Space-Track

Epoch: Sep 13, 2026, 11:30 UTC

1 66293U 25248A   26256.47950577  .00000965  00000-0  97652-4 0  9995
2 66293  45.4103  61.8065 0001608 286.7860  73.2842 14.98747001 47304

Track KORSAT-4 in real time with AllMySat

Download on the App Store